TimeCST,TemperatureF,Dew PointF,Humidity,Sea Level PressureIn,VisibilityMPH,Wind Direction,Wind SpeedMPH,Gust SpeedMPH,PrecipitationIn,Events,Conditions,WindDirDegrees,DateUTC
12:53 AM,39.0,34.0,82,30.18,10.0,WNW,9.2,-,N/A,,Clear,300,2012-11-05 06:53:00
1:53 AM,37.0,33.1,86,30.19,10.0,WNW,9.2,-,N/A,,Clear,300,2012-11-05 07:53:00
2:53 AM,33.1,30.0,89,30.21,10.0,NW,6.9,-,N/A,,Clear,310,2012-11-05 08:53:00
3:53 AM,35.1,30.9,85,30.21,10.0,NNW,5.8,-,N/A,,Mostly Cloudy,330,2012-11-05 09:53:00
4:53 AM,37.9,34.0,86,30.22,10.0,NW,5.8,-,N/A,,Overcast,310,2012-11-05 10:53:00
5:53 AM,37.0,33.1,86,30.24,10.0,WNW,8.1,-,N/A,,Overcast,300,2012-11-05 11:53:00
6:53 AM,32.0,30.0,92,30.25,10.0,NW,4.6,-,N/A,,Mostly Cloudy,320,2012-11-05 12:53:00
7:33 AM,30.2,28.4,93,30.21,10.0,NW,5.8,-,N/A,,Partly Cloudy,320,2012-11-05 13:33:00
7:53 AM,30.9,30.0,96,30.26,10.0,WNW,5.8,-,N/A,,Partly Cloudy,300,2012-11-05 13:53:00
8:16 AM,33.8,30.2,87,30.23,10.0,NW,5.8,-,N/A,,Mostly Cloudy,320,2012-11-05 14:16:00
8:53 AM,36.0,32.0,86,30.26,10.0,Calm,Calm,-,N/A,,Scattered Clouds,0,2012-11-05 14:53:00
9:01 AM,37.4,33.8,87,30.23,10.0,WNW,3.5,-,N/A,,Mostly Cloudy,300,2012-11-05 15:01:00
9:53 AM,43.0,35.1,74,30.25,10.0,NNW,4.6,-,N/A,,Mostly Cloudy,330,2012-11-05 15:53:00
10:01 AM,44.6,35.6,71,30.22,10.0,Variable,3.5,-,N/A,,Partly Cloudy,0,2012-11-05 16:01:00
10:53 AM,48.9,34.0,56,30.23,10.0,NNW,9.2,-,N/A,,Clear,340,2012-11-05 16:53:00
11:53 AM,50.0,33.1,52,30.21,10.0,Calm,Calm,-,N/A,,Clear,0,2012-11-05 17:53:00
12:53 PM,53.1,32.0,45,30.17,10.0,West,3.5,-,N/A,,Clear,260,2012-11-05 18:53:00
1:53 PM,54.0,30.9,41,30.12,10.0,Variable,3.5,-,N/A,,Clear,0,2012-11-05 19:53:00
2:53 PM,54.0,30.9,41,30.12,10.0,West,9.2,-,N/A,,Partly Cloudy,270,2012-11-05 20:53:00
3:53 PM,53.1,30.9,43,30.10,10.0,WSW,8.1,-,N/A,,Partly Cloudy,250,2012-11-05 21:53:00
4:53 PM,52.0,32.0,47,30.08,10.0,South,3.5,-,N/A,,Clear,180,2012-11-05 22:53:00
5:53 PM,45.0,30.9,58,30.08,10.0,SE,4.6,-,N/A,,Clear,140,2012-11-05 23:53:00
6:53 PM,39.9,30.0,68,30.10,10.0,Calm,Calm,-,N/A,,Clear,0,2012-11-06 00:53:00
7:53 PM,37.9,28.9,70,30.09,10.0,SE,3.5,-,N/A,,Clear,130,2012-11-06 01:53:00
8:53 PM,37.9,30.0,73,30.09,10.0,Calm,Calm,-,N/A,,Clear,0,2012-11-06 02:53:00
9:53 PM,43.0,30.0,60,30.05,10.0,South,5.8,-,N/A,,Clear,170,2012-11-06 03:53:00
10:53 PM,39.9,28.9,65,30.04,10.0,Calm,Calm,-,N/A,,Scattered Clouds,0,2012-11-06 04:53:00
11:53 PM,44.1,30.0,58,30.02,10.0,SW,4.6,-,N/A,,Mostly Cloudy,220,2012-11-06 05:53:00